Probability
0 0 0 0 0 0 0 0 0 0 0 0 0 0 0 0 0 0 0 0 0 0 0 0 0 0 0 0 0 0 0 0 0 0 0 0 0 0 0 0 0 0 0
0 0 0 0 0 0 0 0 0 0 0 0 0 0 0 0 0 0 0 0 0 0 0 0 0 0 0 0 0 0 0 0 0 0 0 0 0 0 0 0 0 0 0
0 0 0 0 0 0 0 0 0 0 0 0 0 0 0 0 0 0 0 0 0 0 0 0 0 0 0 0 0 0 0 0 0 0 0 0 0 0 0 0 0 0 0
0 0 0 0 0 0 0 0 0 0 0 0 0 0 0 0 0 0 0 0 0 0 0 0 0 0 0 0 0 0 0 0 0 0 0 0 0 0 0 0 0 0 0
0 0 0 0 0 0 0 0 0 0 0 0 0 0 0 0 0 0 0 0 0 0 0 0 0 0 0 0 0 0 0 0 0 0 0 0 0 0 0 0 0 0 0
0 0 0 0 0 0 0 0 0 0 0 0 0 0 0 0 0 0 0 0 0 0 0 0 0 0 0 0 0 0 0 0 0 0 0 0 0 0 0 0 0 0 0
0 0 0 0 0 0 0 0 0 0 0 0 0 0 0 0 0 0 0 0 0 0 0 0 0 0 0 0 0 0 0 0 0 0 0 0 0 0 0 0 0 0 0
0 0 0 0 0 0 0 0 0 0 0 0 0 0 0 0 0 0 0 0 0 0 0 0 0 0 0 0 0 0 0 0 0 0 0 0 0 0 0 0 0 0 0
0 0 0 0 0 0 0 0 0 0 0 0 0 0 0 0 0 0 0 0 0 0 0 0 0 0 0 0 0 0 0 0 0 0 0 0 0 0 0 0 0 0 0
0 0 0 0 0 0 0 0 0 0 0 0 0 0 0 0 0 0 0 0 0 0 0 0 0 0 0 0 0 0 0 0 0 0 0 0 0 0 0 0 0 0 0
0 0 0 0 0 0 0 0 0 0 0 0 0 0 0 0 0 0 0 0 0 0 0 0 0 0 0 0 0 0 0 0 0 0 0 0 0 0 0 0 0 0 0
0 0 0 0 0 0 0 0 0 0 0 0 0 0 0 0 0 0 0 0 0 0 0 0 0 0 0 0 0 0 0 0 0 0 0 0 0 0 0 0 0 0 0
1 1 0 0 0 0 0 0 0 0 0 0 0 0 0 0 0 0 0 0 0 0 0 0 0 0 0 0 0 0 0 0 0 0 0 0 0 0 0 0 0 0 0
2 2 1 0 0 0 0 0 0 0 0 0 0 0 0 0 0 0 0 0 0 0 0 0 0 0 0 0 0 0 0 0 0 0 0 0 0 0 0 0 0 0 0
2 2 1 1 0 0 0 0 0 0 0 0 0 0 0 0 0 0 0 0 0 0 0 0 0 0 0 0 0 0 0 0 0 0 0 0 0 0 0 0 0 0 0
1 1 2 2 1 0 0 0 0 0 0 0 0 0 0 0 0 0 0 0 0 0 0 0 0 0 0 0 0 0 0 0 0 0 0 0 0 0 0 0 0 0 0
0 0 1 1 1 0 0 0 0 0 0 0 0 0 0 0 0 0 0 0 0 0 0 0 0 0 0 0 0 0 0 0 0 0 0 0 0 0 0 0 0 0 0
0 0 1 1 0 0 0 0 0 0 0 0 0 0 0 0 0 0 0 0 0 0 0 0 0 0 0 0 0 0 0 0 0 0 0 0 0 0 0 0 0 0 0
0 0 1 2 1 0 0 0 0 0 0 0 0 0 0 0 0 0 0 0 0 0 0 0 0 0 0 0 0 0 0 0 0 0 0 0 0 0 0 0 0 0 0
0 0 1 2 2 1 0 0 0 0 0 0 0 0 0 0 0 0 0 0 0 0 0 0 0 0 0 0 0 0 0 0 0 0 0 0 0 0 0 0 0 0 0
0 0 0 1 2 2 1 0 0 0 0 0 0 0 0 0 0 0 0 0 0 0 0 0 0 0 0 0 0 0 0 0 0 0 0 0 0 0 0 0 0 0 0
0 0 0 1 2 2 1 0 0 0 0 0 0 0 0 0 0 0 0 0 0 0 0 0 0 0 0 0 0 0 0 0 0 0 0 0 0 0 0 0 0 0 0
0 0 0 0 1 2 1 0 0 0 0 0 0 0 0 0 0 0 0 0 0 0 0 0 0 0 0 0 0 0 0 0 0 0 0 0 0 0 0 0 0 0 0
0 0 0 0 1 1 1 0 0 0 0 0 0 0 0 0 0 0 0 0 0 0 0 0 0 0 0 0 0 0 0 0 0 0 0 0 0 0 0 0 0 0 0
0 0 0 0 0 0 0 0 0 0 0 0 0 0 0 0 0 0 0 0 0 0 0 0 1 0 0 0 0 0 0 0 0 0 0 0 0 0 0 0 0 0 0
0 0 0 0 0 0 0 0 0 0 0 0 0 0 0 0 0 0 0 0 0 0 0 0 1 0 0 0 0 0 0 0 0 0 0 0 0 0 0 0 0 0 0
Wind_Speed
3 4 3 5 7 8 9 10 10 10 11 11 11 12 11 12 12 12 11 11 10 10 10 10 11 11 11 11 11 11 10 10 10 9 9 8 8 8 9 9 8 5 9
1 2 4 6 8 9 9 10 10 10 11 11 11 11 11 11 11 11 11 11 10 10 10 10 10 11 11 10 10 10 10 9 9 9 8 7 7 8 8 8 8 5 8
3 3 4 7 9 9 10 10 10 10 10 10 10 10 10 10 10 10 10 10 10 10 10 10 10 10 10 10 10 10 10 10 9 9 8 5 4 7 8 8 8 8 8
4 4 5 8 9 9 10 10 10 10 10 10 10 10 10 10 10 9 10 10 10 10 9 9 9 9 9 9 9 9 10 10 9 9 5 4 4 6 6 7 6 7 7
5 4 5 9 9 10 10 10 10 10 10 10 10 10 10 10 10 9 10 10 10 10 9 9 9 8 8 8 8 8 9 9 9 7 4 4 4 5 5 5 5 5 5
5 5 6 9 10 10 10 10 10 10 10 10 10 10 10 10 10 10 10 10 10 9 9 9 8 8 8 8 8 8 8 8 7 4 4 4 3 5 5 5 4 4 4
5 6 6 9 10 10 10 10 10 10 10 10 10 10 10 10 10 10 9 9 9 9 9 9 9 8 8 8 8 7 7 7 5 4 3 3 3 5 5 4 4 3 4
6 6 6 9 10 10 10 10 10 10 10 10 11 10 10 9 9 9 9 9 8 8 8 8 8 8 8 8 8 7 7 6 5 4 3 3 4 5 5 4 4 4 3
6 6 6 6 7 9 10 10 10 10 10 10 10 11 10 10 9 9 9 9 8 8 8 8 8 8 8 8 8 8 7 6 4 2 3 2 5 6 6 5 4 4 4
6 6 5 6 6 5 6 9 10 10 10 10 10 10 10 9 9 9 9 8 8 8 8 8 8 8 8 8 8 8 7 5 3 3 2 3 6 6 6 6 5 4 4
5 5 4 5 5 5 5 7 7 8 9 8 8 9 8 5 5 5 8 9 8 8 8 8 8 8 8 7 8 7 6 3 3 2 2 5 6 6 6 6 6 5 5
3 3 3 3 4 4 4 4 4 4 5 5 5 5 4 4 4 5 7 8 9 8 7 7 7 7 6 4 5 5 3 4 3 3 3 6 6 6 6 6 6 6 6
2 2 2 2 3 4 3 3 2 3 3 4 5 5 4 3 3 4 3 5 5 6 5 6 5 4 3 3 3 3 3 3 2 2 4 7 8 7 7 7 7 7 7
2 2 2 2 3 3 3 2 3 3 3 3 4 5 4 3 3 3 3 4 3 3 3 4 3 4 4 3 3 3 3 2 2 2 4 8 8 8 8 8 8 8 8
2 2 2 2 3 3 3 2 3 2 3 3 3 4 4 3 3 3 3 3 3 3 3 3 3 3 3 3 3 3 3 3 3 3 3 8 9 9 9 10 10 10 10
1 2 2 3 2 3 3 2 2 2 2 2 3 3 4 3 2 2 3 3 3 3 3 2 2 2 2 2 3 3 3 3 3 3 3 5 9 10 10 10 10 10 11
1 1 1 2 3 3 3 2 2 2 2 2 2 3 3 3 2 2 2 2 3 3 3 3 3 2 2 3 3 3 2 3 2 3 3 3 4 8 11 11 11 11 11
1 1 1 2 2 2 2 2 1 1 2 1 1 2 3 3 3 2 2 2 3 3 2 2 3 2 2 2 2 3 2 2 2 2 3 3 3 4 7 11 11 11 11
1 1 1 1 2 2 2 2 2 1 1 1 2 2 3 3 3 2 2 3 3 2 2 3 3 2 2 2 2 2 2 2 1 2 3 3 3 4 3 7 10 11 11
1 1 1 1 1 1 1 1 1 2 2 2 2 2 3 3 3 2 2 3 3 3 3 3 3 3 2 2 2 2 2 1 1 1 2 2 2 4 4 5 5 7 11
2 1 1 1 1 1 1 1 1 1 2 2 2 3 3 3 3 2 2 2 3 2 3 3 2 3 3 3 1 2 1 1 0 1 1 1 2 3 3 4 3 3 5
1 1 1 1 1 1 0 0 1 1 1 1 1 2 3 3 3 3 2 2 2 2 3 3 3 2 2 2 1 1 2 2 1 1 1 1 2 2 3 4 4 4 4
1 1 1 1 1 1 1 1 1 1 1 1 2 2 3 3 3 3 2 2 2 1 2 2 2 2 2 2 1 0 0 2 3 2 1 1 1 2 2 3 3 4 5
2 1 1 1 1 1 1 1 0 0 1 2 2 2 3 3 3 3 3 2 2 2 2 2 2 2 1 2 2 1 1 1 1 3 2 1 2 2 2 3 3 4 4
1 1 1 1 1 1 1 0 0 1 1 1 1 2 2 2 2 3 3 2 2 2 2 3 3 2 2 2 2 2 2 2 2 2 5 4 3 2 2 3 2 3 4
1 1 0 0 1 1 1 0 0 1 1 2 2 2 2 2 2 3 3 3 3 2 3 3 2 2 2 2 2 2 1 2 2 3 4 5 5 4 3 2 2 3 3
Wind_Direction
328 329 352 68 78 81 80 79 78 78 79 80 79 78 77 75 72 71 69 70 71 71 68 69 68 66 64 61 60 59 60 60 57 56 55 56 59 67 68 63 58 50 60
357 359 30 60 77 81 79 78 78 78 78 78 78 76 76 75 73 70 66 66 67 69 68 67 65 64 62 60 59 56 54 54 53 49 46 41 45 61 67 64 60 59 61
52 32 44 57 73 76 76 76 76 75 74 74 75 74 74 73 73 72 67 65 64 66 65 64 61 60 59 59 58 55 52 49 50 47 41 27 27 55 63 64 60 58 60
64 49 48 57 69 73 74 73 73 73 72 72 71 72 72 69 68 70 67 64 61 61 61 61 58 55 54 54 56 55 52 48 46 43 34 22 16 41 52 57 58 58 56
60 51 51 60 69 73 72 71 71 71 69 69 69 69 70 67 63 64 64 61 58 56 55 58 57 54 50 48 52 53 51 49 46 41 27 16 6 24 40 45 53 55 51
56 49 52 61 69 73 70 70 70 69 67 65 65 64 64 63 60 60 60 58 55 53 52 52 53 52 48 44 45 49 49 48 45 32 22 10 359 7 25 33 41 49 47
62 52 55 58 61 67 69 68 67 65 63 60 60 61 60 58 56 55 55 54 51 50 48 47 47 45 42 41 39 43 44 44 45 29 15 2 349 4 14 16 21 26 25
69 57 54 53 54 56 58 62 62 61 62 60 57 55 56 56 53 52 50 49 46 45 45 44 41 41 39 38 38 40 43 43 40 26 8 358 357 0 8 10 8 4 4
67 62 52 49 50 49 50 50 53 55 56 55 53 51 48 47 48 43 40 41 41 39 40 38 36 36 38 36 36 36 35 38 39 22 5 351 349 358 4 5 0 357 357
64 60 53 48 47 44 45 47 47 50 50 48 46 44 43 41 41 39 33 30 32 33 34 32 33 32 31 33 33 32 31 31 28 14 357 346 349 351 355 357 356 353 350
65 56 49 50 48 45 47 43 42 44 44 43 40 39 38 29 28 29 26 23 20 23 25 27 28 29 29 28 28 30 32 21 11 7 347 343 346 347 350 351 350 351 346
72 57 47 51 49 46 46 41 33 37 37 36 34 32 31 25 22 23 20 20 17 17 20 23 23 24 27 16 15 23 25 12 12 2 353 351 352 353 354 357 352 350 345
106 68 46 51 50 50 47 46 34 32 32 32 31 28 26 27 21 20 15 11 9 11 9 8 12 14 17 14 11 14 15 16 10 355 355 355 353 354 355 354 352 348 348
101 72 48 54 52 49 49 46 41 34 30 29 23 24 26 25 20 16 18 7 5 3 360 3 3 0 9 11 15 13 11 11 359 353 356 0 0 360 359 358 357 356 353
83 64 52 62 56 50 52 40 44 36 33 25 22 20 25 27 17 10 6 5 3 357 356 353 356 356 359 4 13 12 3 4 2 4 358 11 15 15 17 17 13 7 3
56 50 42 53 52 55 57 46 39 34 28 26 23 17 21 21 16 10 3 357 355 351 345 340 339 346 348 357 2 4 359 4 19 14 7 11 19 21 18 17 14 8 5
62 43 48 66 55 57 55 48 41 31 36 32 16 11 16 16 10 6 1 355 346 340 340 345 342 348 355 4 360 357 4 16 17 15 15 18 16 19 16 13 11 5 1
56 58 40 54 61 60 55 48 39 32 33 26 11 5 7 6 4 2 359 344 335 343 351 347 349 348 348 352 350 352 356 1 7 21 31 26 21 16 11 12 8 3 358
60 62 66 64 69 64 55 52 45 41 31 10 11 3 357 359 0 0 356 343 340 351 356 355 355 349 342 342 336 340 348 350 345 26 36 31 26 23 12 7 5 1 358
47 47 72 92 84 78 63 47 41 38 25 13 13 4 359 354 352 355 0 349 349 356 355 355 353 348 334 327 331 342 332 330 9 40 26 23 27 21 12 7 358 353 356
34 34 38 58 49 74 52 33 9 354 345 1 5 5 1 355 352 356 1 354 358 2 349 341 341 348 344 344 349 327 314 306 53 24 4 14 18 10 8 1 356 353 348
349 346 14 1 1 3 5 209 220 277 288 329 355 4 360 357 355 3 5 356 353 351 353 354 349 338 326 353 352 323 313 315 340 349 330 12 357 355 357 353 351 355 348
304 314 325 322 338 354 19 50 34 33 353 354 357 355 350 352 360 357 350 348 349 346 339 335 336 326 299 320 350 244 253 280 311 296 307 326 338 334 329 336 347 347 345
263 271 295 326 335 358 59 90 61 324 291 291 311 324 335 344 352 349 345 345 343 337 334 324 332 316 290 299 318 329 295 261 286 303 300 298 311 309 314 327 329 326 331
256 249 258 316 329 4 39 52 329 314 290 305 333 328 332 338 343 346 339 339 336 331 330 329 328 330 315 290 288 286 281 288 255 258 286 300 300 276 288 294 302 310 320
272 271 246 286 311 357 43 24 305 316 328 335 334 328 327 329 333 339 341 337 327 324 322 317 319 322 310 302 290 281 273 268 269 264 272 287 294 292 290 283 291 299 305